This is the latest recevied weather packets stored in our database for station/object XE2VP-WX. If no packets are shown the sender has not sent any weather packets the latest 1 day(s).
| Time | Temp. | Humidity | Pressure | Rain* | Wind** | Luminosity | Snow |
|---|---|---|---|---|---|---|---|
| 1778086876 | 32.22° C | 46% | 941.4 hPa | 0 mm | - | 1135 W/m² | - |
| 1778086696 | 31.67° C | 48% | 941.4 hPa | 0 mm | - | 1023 W/m² | - |
| 1778086635 | 31.67° C | 48% | 941.4 hPa | 0 mm | - | 993 W/m² | - |
| 1778086455 | 31.67° C | 48% | 941.4 hPa | 0 mm | - | 949 W/m² | - |
| 1778086216 | 31.67° C | 49% | 941.4 hPa | 0 mm | - | 941 W/m² | - |
| 1778086096 | 31.67° C | 50% | 941.3 hPa | 0 mm | - | 745 W/m² | - |
| 1778085974 | 31.67° C | 52% | 941.4 hPa | 0 mm | - | 975 W/m² | - |
| 1778085914 | 31.67° C | 52% | 941.4 hPa | 0 mm | - | 967 W/m² | - |
| 1778085614 | 31.11° C | 53% | 941.5 hPa | 0 mm | - | 957 W/m² | - |
| 1778085310 | 31.11° C | 52% | 941.4 hPa | 0 mm | - | 930 W/m² | - |
| 1778085250 | 31.11° C | 52% | 941.4 hPa | 0 mm | - | 916 W/m² | - |
| 1778085190 | 31.11° C | 52% | 941.4 hPa | 0 mm | - | 906 W/m² | - |
| 1778084770 | 30.56° C | 54% | 941.5 hPa | 0 mm | - | 820 W/m² | - |
| 1778084650 | 30° C | 55% | 941.5 hPa | 0 mm | - | 879 W/m² | - |
| 1778084350 | 30.56° C | 55% | 941.5 hPa | 0 mm | - | 917 W/m² | - |
| 1778084290 | 30.56° C | 55% | 941.5 hPa | 0 mm | - | 910 W/m² | - |
| 1778084170 | 30.56° C | 56% | 941.6 hPa | 0 mm | - | 908 W/m² | - |
| 1778084050 | 30.56° C | 56% | 941.6 hPa | 0 mm | - | 839 W/m² | - |
| 1778083931 | 30° C | 58% | 941.5 hPa | 0 mm | - | 861 W/m² | - |
| 1778083631 | 30.56° C | 57% | 941.5 hPa | 0 mm | - | 865 W/m² | - |
| 1778083331 | 30° C | 57% | 941.6 hPa | 0 mm | - | 816 W/m² | - |
| 1778083270 | 30° C | 58% | 941.6 hPa | 0 mm | - | 796 W/m² | - |
| 1778083149 | 29.44° C | 58% | 941.6 hPa | 0 mm | - | 786 W/m² | - |
| 1778082969 | 29.44° C | 59% | 941.6 hPa | 0 mm | - | 767 W/m² | - |
| 1778082665 | 29.44° C | 58% | 941.6 hPa | 0 mm | - | 744 W/m² | - |
* Rain latest hour (hover to see other rain measurements)
** Current wind speed in m/s (hover to see current wind gust speed)